www.pogodaiklimat.ru
ПОГОДА в Мекриярви
Время
(UTC), дата
01 14.11
02 14.11
03 14.11
04 14.11
05 14.11
06 14.11
07 14.11
08 14.11
09 14.11
10 14.11
11 14.11
12 14.11
13 14.11
14 14.11
15 14.11
16 14.11
17 14.11
18 14.11
19 14.11
20 14.11
21 14.11
22 14.11
23 14.11
00 15.11
01 15.11
02 15.11
03 15.11
04 15.11
05 15.11
06 15.11
07 15.11
08 15.11
09 15.11
10 15.11
11 15.11
12 15.11
13 15.11
14 15.11
15 15.11
16 15.11
17 15.11
18 15.11
19 15.11
20 15.11
21 15.11
22 15.11
23 15.11
00 16.11
01 16.11
02 16.11
03 16.11
04 16.11
05 16.11
06 16.11
07 16.11
08 16.11
09 16.11
10 16.11
11 16.11
12 16.11
13 16.11
14 16.11
15 16.11
16 16.11
17 16.11
18 16.11
19 16.11
20 16.11
21 16.11
22 16.11
23 16.11
00 17.11
01 17.11
02 17.11
03 17.11
04 17.11
05 17.11
06 17.11
07 17.11
08 17.11
09 17.11
10 17.11
11 17.11
12 17.11
13 17.11
14 17.11
15 17.11
16 17.11
17 17.11
18 17.11
19 17.11
20 17.11
21 17.11
22 17.11
23 17.11
00 18.11
01 18.11
02 18.11
03 18.11
04 18.11
05 18.11
06 18.11
07 18.11
08 18.11
09 18.11
10 18.11
11 18.11
12 18.11
13 18.11
14 18.11
15 18.11
16 18.11
17 18.11
18 18.11
19 18.11
20 18.11
21 18.11
22 18.11
23 18.11
00 19.11
01 19.11
02 19.11
03 19.11
04 19.11
05 19.11
06 19.11
07 19.11
08 19.11
09 19.11
10 19.11
11 19.11
12 19.11
13 19.11
14 19.11
15 19.11
16 19.11
17 19.11
18 19.11
19 19.11
20 19.11
21 19.11
22 19.11
23 19.11
00 20.11
01 20.11
02 20.11
03 20.11
04 20.11
05 20.11
06 20.11
07 20.11
08 20.11
09 20.11
10 20.11
11 20.11
12 20.11
13 20.11
14 20.11
15 20.11
16 20.11
17 20.11
18 20.11
19 20.11
20 20.11
21 20.11
22 20.11
23 20.11
00 21.11
01 21.11
02 21.11
Ветер
(напр.,м/с)
Видим. Явления Облачность Т
(С)
Тd
(С)
f
(%)
Тe
(С)
Тes
(С)
Комфортность P
(гПа)
Po
(гПа)
Тmin
(С)
Tmax
(С)
R
(мм)
R24
(мм)
S
(см)
ЮВ 4-6
{6}
3500 м дымка 10/10 <50 м
[]
+2.8 +2.8 100 -2 -2 по сезону 1008.6 989.3
ЮВ 3-5
{6}
500 м слаб. ливневой дождь ?/? +2.9 +2.9 100 -1 -1 по сезону 1008.6 989.3
ЮВ 2-3
{4}
500 м сильная пыльная буря {ливн. осадки, дождь} ?/? +3.2 +3.2 100 -0 -0 по сезону 1008.9 989.6 0.1
ЮВ 2-4
{4}
600 м слаб. ливневой дождь ?/? +3.4 +3.4 100 0 0 по сезону 1008.9 989.6 0.1
ЮВ 3-5
{5}
400 м туман 10/10 <50 м
[]
+3.7 +3.7 100 -0 -0 по сезону 1008.9 989.6 0.1
Ю 3-5
{5}
300 м туман {ливн. осадки, дождь} ?/? +3.9 +3.9 100 -0 -0 по сезону 1009.3 990.0 +1.6 +4.2 3
Ю 4-6
{6}
200 м туман ?/? +4.1 +4.1 100 -1 -1 по сезону 1009.2 990.0
Ю 3-5
{6}
100 м туман ?/? +4.4 +4.4 100 +1 +1 по сезону 1009.6 990.3
Ю 4-5
{5}
200 м пыльная буря {метель} ?/? +4.6 +4.6 100 0 0 по сезону 1009.6 990.3
Ю 4-7
{7}
2200 м слаб. дождь 10/10 <50 м
[]
+4.6 +4.6 100 0 0 по сезону 1009.6 990.4 0.1
ЮВ 5-7
{7}
2700 м в посл. час осадки 10/10 <50 м
[]
+4.3 +4.3 100 -1 -1 по сезону 1009.6 990.4
ЮВ 4-7
{7}
3600 м дымка {ливн. осадки, дождь} 9/9 50 м
[]
+4.2 +4.2 100 -1 -1 по сезону 1009.4 990.1
ЮВ 6-8
{9}
4000 м осадки 10/10 50 м
[]
+4.1 +4.1 100 -2 -2 по сезону 1009.3 990.0
Ю 5-7
{9}
3000 м слаб. дождь 10/10 50 м
[]
+4.1 +4.1 100 -1 -1 по сезону 1009.2 989.9 0.4
Ю 5-8
{9}
4400 м в посл. час снег {ливн. осадки, дождь} 10/10 50 м
[]
+4.3 +4.3 100 -1 -1 по сезону 1009.3 990.0
Ю 6-9
{9}
1800 м дымка 9/0 50 м
[]
+4.7 +4.7 100 -1 -1 по сезону 1009.4 990.2
Ю 5-9
{9}
1500 м дымка 10/10 <50 м
[]
+4.9 +4.9 100 -0 -0 по сезону 1009.4 990.2
Ю 5-8
{8}
2500 м дымка {ливн. осадки, дождь} 10/10 50 м
[]
+5.5 +5.5 100 +1 +1 по сезону 1009.4 990.2 +3.9 +5.6
Ю 6-10
{10}
2400 м в посл. час осадки 10/10 50 м
[]
+6.0 +5.9 99 +1 +1 по сезону 1009.1 990.0
Ю 7-11
{11}
4500 м дымка 10/10 100 м
[]
+6.7 +6.4 98 +2 +2 по сезону 1009.1 990.0
Ю 6-10
{10}
6000 м дымка {ливн. осадки, туман} 9/9 100 м
[]
+7.1 +6.4 95 +2 +2 по сезону 1008.8 989.7
Ю 7-10
{12}
9000 м дымка 9/9 200 м
[]
+6.5 +5.5 93 +1 +1 по сезону 1008.7 989.7
ЮЗ 7-13
{14}
50 км 9/9 300 м
[]
+6.2 +3.8 85 +1 +1 по сезону 1009.4 990.3
ЮЗ 6-10
{14}
35 км {ливн. осадки, туман} 10/10 300 м
[]
+5.0 +3.4 89 -0 -0 по сезону 1010.1 990.8
ЮЗ 10-16
{16}
8000 м слаб. ливневой дождь 9/9 200 м
[]
+3.9 +2.9 93 -3 -3 прохладно 1011.6 992.2
З 9-14
{18}
18 км морось 10/10 300 м
[]
+2.5 +1.1 90 -5 -5 холодно 1014.0 994.5 0.1
З 7-13
{15}
50 км в посл. час морось 10/10 200 м
[]
+1.9 +1.1 94 -5 -5 холодно 1016.0 996.4
З 6-11
{11}
50 км 10/10 200 м
[]
+2.1 +0.7 90 -4 -4 прохладно 1017.8 998.2
З 4-8
{12}
50 км 10/10 300 м
[]
+1.9 +0.5 90 -3 -3 прохладно 1019.5 999.9
З 4-8
{9}
24 км 10/10 300 м
[]
+1.9 +0.1 88 -3 -3 прохладно 1020.9 1001.3 +1.8 +7.4 <0.5
З 5-8
{10}
35 км в посл. час морось 10/10 300 м
[]
+1.4 -0.3 88 -4 -4 прохладно 1022.3 1002.6
З 4-6
{8}
50 км в посл. час морось 9/9 600 м
[]
+1.4 -1.3 82 -4 -4 прохладно 1023.3 1003.6
ЮЗ 5-6
{7}
50 км {ливн. осадки, дождь} 10/10 600 м
[]
+1.2 -0.6 88 -5 -5 холодно 1024.2 1004.5
З 4-7
{8}
40 км ливневой дождь 10/10 300 м
[]
+1.3 -0.9 85 -4 -4 прохладно 1024.9 1005.2
З 5-8
{8}
4100 м слаб. ливневой снег 10/10 200 м
[]
+0.4 -0.6 93 -6 -6 холодно 1026.0 1006.1
З 3-5
{7}
16 км слаб. ливневой дождь 10/10 300 м
[]
+0.5 -0.9 90 -4 -4 прохладно 1026.5 1006.7
З 3-6
{7}
50 км в посл. час дождь 10/0 300 м
[]
+0.5 -1.7 85 -4 -4 прохладно 1026.8 1007.0
ЮЗ 3-5
{5}
15 км 10/10 200 м
[]
+0.2 -0.8 93 -5 -5 холодно 1027.3 1007.4
З 3-6
{6}
50 км {ливн. осадки} 10/10 200 м
[]
+0.3 -1.3 89 -4 -4 прохладно 1027.6 1007.7
З 2-4
{6}
50 км 10/0 200 м
[]
+0.1 -1.4 90 -4 -4 прохладно 1027.8 1007.9
З 2-4
{5}
45 км 10/0 200 м
[]
-0.2 -1.6 90 -4 -4 прохладно 1028.2 1008.3
ЮЗ 2-3
{4}
30 км снежные зёрна {ливн. осадки} 10/10 300 м
[]
-0.5 -1.6 92 -4 -4 прохладно 1028.2 1008.3 -0.7 +1.9
З 2-3
{4}
15 км снежные зёрна 10/10 300 м
[]
-0.6 -2.3 88 -4 -4 прохладно 1028.3 1008.3
штиль 0-1
{2}
4800 м слаб. снег 10/10 200 м
[]
-1.0 -1.5 96 -2 -2 по сезону 1028.2 1008.2
ЮЗ 1-2
{2}
1800 м слаб. снег {дождь} 10/10 50 м
[]
-1.1 -1.3 99 -3 -3 прохладно 1028.1 1008.1 0.1
ЮЗ 1-2
{3}
40 км слаб. снег 10/0 300 м
[]
-1.4 -1.7 98 -4 -4 прохладно 1028.1 1008.1 0.1
ЮЗ 1-1
{3}
22 км ливневой дождь 10/0 300 м
[]
-1.3 -2.5 92 -4 -4 прохладно 1027.7 1007.7
штиль 0-1
{2}
5000 м слаб. ливневой снег 10/10 300 м
[]
-1.5 -2.2 95 -3 -3 прохладно 1027.7 1007.7
штиль 0-1
{1}
45 км слаб. ливневой дождь 10/0 300 м
[]
-1.6 -2.3 95 -3 -3 прохладно 1027.4 1007.4
ЮВ 1-1
{1}
24 км ливневой дождь 10/0 300 м
[]
-1.5 -3.2 88 -4 -4 прохладно 1027.4 1007.3
С 1-2
{2}
26 км слаб. ливневой дождь 9/0 300 м
[]
-1.7 -2.6 94 -4 -4 прохладно 1027.1 1007.1
СВ 1-2
{2}
13 км слаб. ливневой снег 10/10 300 м
[]
-1.8 -2.5 95 -4 -4 прохладно 1026.9 1006.8
СВ 2-3
{4}
35 км слаб. ливневой снег 10/10 200 м
[]
-2.0 -2.8 94 -6 -6 холодно 1026.5 1006.5 0.1
В 2-5
{5}
50 км в посл. час снег {ливн. осадки} 10/0 300 м
[]
-2.2 -3.8 89 -6 -6 холодно 1026.4 1006.3 -2.2 -0.4 <0.5
СВ 2-4
{5}
21 км слаб. снег 10/0 300 м
[]
-2.1 -3.7 89 -6 -6 холодно 1026.3 1006.3
В 2-4
{4}
5000 м слаб. снег 10/10 200 м
[]
-2.4 -3.5 92 -7 -7 холодно 1026.5 1006.4
СВ 2-4
{4}
8000 м слаб. ливневой снег 9/9 300 м
[]
-2.5 -4.0 89 -7 -7 холодно 1026.1 1006.0
В 2-4
{5}
13 км ливневой дождь 10/0 300 м
[]
-2.5 -4.1 89 -7 -6 холодно 1025.9 1005.8
СВ 2-4
{6}
35 км в посл. час снег 10/0 300 м
[]
-2.6 -4.5 87 -7 -7 холодно 1025.7 1005.6
СВ 2-4
{6}
24 км {ливн. осадки, снег} 10/0 300 м
[]
-2.8 -4.7 87 -7 -7 холодно 1025.2 1005.2
В 4-6
{6}
50 км в посл. час снег 10/10 200 м
[]
-3.4 -5.0 89 -10 -10 очень
холодно
1025.2 1005.1
В 2-4
{4}
29 км 10/0 200 м
[]
-3.3 -4.7 90 -7 -7 холодно 1025.5 1005.4
В 2-4
{6}
50 км {ливн. осадки, снег} 10/0 200 м
[]
-3.6 -5.0 90 -8 -8 очень
холодно
1025.4 1005.3
В 2-5
{5}
50 км 10/0 200 м
[]
-3.8 -4.9 92 -8 -8 очень
холодно
1025.5 1005.3
В 3-5
{5}
50 км 10/10 100 м
[]
-4.1 -5.2 92 -10 -10 очень
холодно
1025.5 1005.3
СВ 2-4
{5}
40 км {ливн. осадки, снег} 10/10 100 м
[]
-4.1 -5.0 93 -8 -8 очень
холодно
1025.8 1005.7 -4.1 -2.1
В 3-5
{5}
29 км слаб. ливневой снег 10/10 100 м
[]
-4.3 -5.0 95 -10 -10 очень
холодно
1025.7 1005.5
В 2-4
{4}
35 км слаб. ливневой снег 10/0 100 м
[]
-3.9 -4.8 93 -8 -8 очень
холодно
1025.6 1005.4
В 2-3
{5}
13 км слаб. ливневой снег 10/0 100 м
[]
-3.8 -4.7 93 -8 -8 очень
холодно
1025.7 1005.5
В 2-5
{6}
50 км слаб. снег 10/10 100 м
[]
-3.8 -4.6 94 -8 -8 очень
холодно
1026.2 1006.0
В 3-5
{5}
50 км 10/0 100 м
[]
-3.7 -4.4 95 -9 -9 очень
холодно
1024.8 1004.7
В 3-5
{5}
50 км {ливн. осадки, снег} 10/0 100 м
[]
-3.7 -4.5 94 -9 -9 очень
холодно
1025.0 1004.9
В 2-5
{5}
50 км 10/10 200 м
[]
-3.7 -4.9 91 -8 -8 очень
холодно
1025.2 1005.1
В 2-3
{5}
40 км 10/10 100 м
[]
-3.7 -4.6 93 -8 -8 очень
холодно
1025.9 1005.7
В 3-5
{5}
17 км 10/10 50 м
[]
-3.7 -4.1 97 -9 -9 очень
холодно
1025.0 1004.9
В 3-6
{8}
29 км снежные зёрна 9/9 100 м
[]
-3.3 -3.9 96 -9 -9 очень
холодно
1023.5 1003.5
В 3-5
{6}
50 км в посл. час зёрна 10/10 100 м
[]
-2.9 -3.7 94 -8 -8 очень
холодно
1023.1 1003.0
ЮВ 3-4
{7}
50 км слаб. ливневой снег 10/0 100 м
[]
-2.5 -3.2 95 -8 -8 очень
холодно
1023.3 1003.3 -4.3 -2.5 <0.5
В 3-6
{6}
11 км снежные зёрна 10/10 100 м
[]
-2.0 -2.8 94 -7 -7 холодно 1023.1 1003.2
В 4-7
{7}
7000 м в посл. час зёрна 10/10 100 м
[]
-1.8 -2.2 97 -8 -8 очень
холодно
1021.9 1002.0
ЮВ 3-6
{7}
5000 м слаб. дождь 10/10 50 м
[]
-1.1 -1.5 97 -6 -6 холодно 1021.7 1001.8 0.1
В 2-4
{5}
11 км морось 10/10 50 м
[]
-0.6 -0.9 98 -5 -5 холодно 1021.6 1001.8 1
В 3-5
{5}
3800 м слаб. дождь 10/10 50 м
[]
-0.2 -0.4 99 -5 -5 холодно 1021.0 1001.2 0.2
ЮВ 3-5
{6}
2400 м слаб. дождь 10/10 50 м
[]
0.0 -0.2 99 -5 -5 холодно 1020.9 1001.1 0.1
ЮВ 2-4
{6}
4500 м в посл. час дождь 10/10 50 м
[]
0.0 -0.1 99 -4 -4 прохладно 1020.7 1000.9 0.1
ЮВ 3-5
{5}
3400 м слаб. ливневой дождь 10/10 <50 м
[]
+0.2 +0.1 99 -5 -5 холодно 1020.2 1000.4 0.1
ЮВ 2-4
{5}
2400 м морось {ливн. осадки, дождь} 10/10 <50 м
[]
+0.2 +0.1 99 -4 -4 прохладно 1020.2 1000.4 0.3
ЮВ 3-4
{4}
5000 м в посл. час дождь 10/10 <50 м
[]
+0.3 +0.2 99 -5 -5 холодно 1019.9 1000.2 0.2
Ю 2-3
{4}
6000 м слаб. ливневой дождь 10/10 <50 м
[]
+0.5 +0.5 100 -3 -3 прохладно 1019.6 999.9 0.7
ЮВ 2-3
{4}
300 м сильная пыльная буря {ливн. осадки, дождь} ?/? +0.7 +0.7 100 -3 -3 прохладно 1019.4 999.7 -2.5 +0.7
Ю 1-2
{3}
200 м туман ?/? +0.8 +0.8 100 -1 -1 по сезону 1019.5 999.8
Ю 2-3
{3}
200 м туман ?/? +1.4 +1.4 100 -2 -2 по сезону 1019.6 1000.0
Ю 2-4
{4}
300 м пыльная буря {ливн. осадки, морось} ?/? +2.0 +2.0 100 -2 -2 по сезону 1019.7 1000.1
Ю 3-4
{4}
1100 м морось ?/? +2.6 +2.6 100 -2 -2 по сезону 1019.9 1000.3 0.1
Ю 3-4
{4}
900 м слаб. морось 9/9 <50 м
[]
+2.4 +2.4 100 -2 -2 по сезону 1020.0 1000.4 0.1
ЮЗ 3-4
{4}
700 м ливневой дождь 9/0 <50 м
[]
+2.6 +2.6 100 -2 -2 по сезону 1020.2 1000.6 0.2
ЮЗ 2-3
{4}
300 м слаб. ливневой дождь 10/0 <50 м
[]
+2.8 +2.8 100 -1 -1 по сезону 1020.5 1000.9 0.1
ЮЗ 2-3
{3}
300 м осадки ?/? +3.0 +3.0 100 -0 -0 по сезону 1020.9 1001.3 0.1
ЮЗ 2-3
{3}
300 м ливневой дождь {туман} ?/? +3.3 +3.3 100 0 0 по сезону 1021.2 1001.6 0.2
ЮЗ 2-3
{3}
200 м туман ?/? +3.2 +3.2 100 -0 -0 по сезону 1022.0 1002.4
ЮЗ 1-2
{2}
200 м туман ?/? +3.8 +3.8 100 +2 +2 по сезону 1022.8 1003.2
ЮЗ 1-1
{2}
200 м сильная пыльная буря {ливн. осадки, туман} ?/? +3.6 +3.6 100 +2 +2 по сезону 1023.4 1003.8 +0.6 +3.8
ЮЗ 1-2
{2}
400 м туман ?/? +3.9 +3.9 100 +2 +2 по сезону 1024.3 1004.7
ЮЗ 1-1
{2}
300 м туман 10/10 200 м
[]
+3.8 +3.8 100 +2 +2 по сезону 1025.2 1005.6
ЮЗ 1-1
{1}
200 м сильная пыльная буря {метель} ?/? +3.8 +3.8 100 +2 +2 по сезону 1026.1 1006.5
штиль 0
{1}
300 м туман ?/? +4.1 +4.1 100 +3 +3 по сезону 1025.9 1006.3
штиль 0 200 м туман ?/? +3.2 +3.2 100 +2 +2 по сезону 1026.5 1006.8
штиль 0 400 м пыльная буря {метель} ?/? +3.9 +3.9 100 +3 +3 по сезону 1027.1 1007.5
штиль 0 500 м туман 10/10 50 м
[]
+3.5 +3.5 100 +2 +2 по сезону 1027.9 1008.2
штиль 0 600 м туман 10/10 50 м
[]
+3.5 +3.5 100 +2 +2 по сезону 1028.3 1008.6
штиль 0 800 м пыльная буря {метель} 10/10 50 м
[]
+3.6 +3.6 100 +2 +2 по сезону 1028.8 1009.1
штиль 0-1
{2}
600 м туман 9/9 200 м
[]
+3.0 +3.0 100 +2 +2 по сезону 1028.9 1009.1
СВ 1-2
{2}
1100 м в посл. час туман 10/10 300 м
[]
+2.6 +2.6 100 +1 +1 по сезону 1029.3 1009.6
В 2-3
{3}
1400 м в посл. час морось 10/10 50 м
[]
+3.1 +3.1 100 -0 -0 по сезону 1029.5 1009.8 +2.4 +4.3
В 2-4
{4}
15 км 10/10 <50 м
[]
+3.2 +3.2 100 -0 -0 по сезону 1030.0 1010.3
В 3-5
{5}
5000 м дымка 10/10 <50 м
[]
+3.1 +3.1 100 -1 -1 по сезону 1030.0 1010.3
В 4-6
{6}
7000 м дымка 10/0 50 м
[]
+2.7 +2.7 100 -2 -2 по сезону 1030.3 1010.5
В 4-6
{6}
9000 м дымка 10/0 50 м
[]
+2.4 +2.4 100 -3 -3 прохладно 1030.6 1010.8
В 4-6
{6}
3200 м дымка 10/0 50 м
[]
+2.0 +2.0 100 -3 -3 прохладно 1030.5 1010.7
В 4-7
{7}
4700 м дымка 10/0 50 м
[]
+1.7 +1.7 100 -4 -4 прохладно 1030.7 1010.9
В 4-6
{6}
50 км 10/10 50 м
[]
+1.8 +1.8 100 -4 -4 прохладно 1030.6 1010.8
В 4-6
{7}
50 км 10/10 50 м
[]
+1.8 +1.8 100 -4 -4 прохладно 1030.5 1010.6
В 4-6
{8}
50 км 10/10 50 м
[]
+1.8 +1.8 100 -4 -4 прохладно 1030.1 1010.2
В 4-7
{7}
50 км 10/10 100 м
[]
+1.9 +1.7 99 -3 -3 прохладно 1029.9 1010.1
В 4-6
{8}
50 км 10/10 100 м
[]
+2.0 +1.7 98 -3 -3 прохладно 1029.8 1010.0
В 4-6
{8}
50 км 10/10 100 м
[]
+2.1 +1.7 97 -3 -3 прохладно 1029.8 1010.0 +1.7 +3.3
В 4-7
{8}
23 км 10/10 100 м
[]
+2.3 +1.9 97 -3 -3 прохладно 1030.0 1010.2
В 4-8
{9}
50 км 10/10 100 м
[]
+2.6 +2.1 97 -2 -2 по сезону 1029.9 1010.2
В 4-7
{9}
50 км {ливн. осадки, туман} 9/9 100 м
[]
+3.0 +2.4 96 -2 -2 по сезону 1029.9 1010.1
ЮВ 4-7
{9}
50 км 10/10 100 м
[]
+3.4 +2.5 94 -1 -1 по сезону 1029.8 1010.1
ЮВ 5-8
{9}
50 км 10/10 200 м
[]
+3.6 +2.7 94 -2 -2 по сезону 1029.5 1009.8
ЮВ 5-8
{10}
40 км {ливн. осадки, туман} 10/10 300 м
[]
+3.9 +2.7 92 -1 -1 по сезону 1029.1 1009.5
ЮВ 5-9
{9}
35 км 10/10 300 м
[]
+4.0 +2.5 90 -1 -1 по сезону 1029.1 1009.4
ЮВ 5-9
{9}
30 км 10/10 300 м
[]
+4.0 +2.3 89 -1 -1 по сезону 1029.4 1009.7
ЮВ 5-9
{9}
45 км 10/10 300 м
[]
+4.0 +2.2 88 -1 -1 по сезону 1029.3 1009.6
ЮВ 5-11
{11}
50 км 10/0 300 м
[]
+4.0 +2.1 87 -1 -1 по сезону 1029.5 1009.9
ЮВ 5-10
{10}
35 км 10/0 300 м
[]
+3.9 +2.1 88 -1 -1 по сезону 1029.9 1010.2
ЮВ 5-9
{10}
30 км 10/0 300 м
[]
+3.9 +2.2 89 -1 -1 по сезону 1030.0 1010.3 +2.1 +4.1
ЮВ 5-9
{9}
29 км 10/10 300 м
[]
+3.9 +2.2 89 -1 -1 по сезону 1030.1 1010.4
ЮВ 4-6
{7}
13 км 10/10 200 м
[]
+3.5 +2.5 93 -1 -1 по сезону 1030.2 1010.5
ЮВ 4-7
{8}
9000 м дымка 10/10 200 м
[]
+3.3 +2.7 96 -2 -2 по сезону 1030.2 1010.5
ЮВ 4-8
{8}
9000 м дымка 10/10 200 м
[]
+3.4 +2.7 95 -1 -1 по сезону 1030.6 1010.8
ЮВ 4-7
{8}
7000 м дымка 10/10 100 м
[]
+3.3 +2.8 97 -2 -2 по сезону 1030.5 1010.8
ЮВ 4-7
{7}
6000 м дымка 10/10 100 м
[]
+3.3 +3.0 98 -2 -2 по сезону 1030.7 1011.0
ЮВ 4-8
{8}
7000 м дымка 10/10 50 м
[]
+3.4 +3.1 98 -1 -1 по сезону 1030.6 1010.9
ЮВ 3-6
{7}
5000 м морось 10/10 50 м
[]
+3.3 +3.1 99 -1 -1 по сезону 1030.9 1011.2 0.1
ЮВ 4-5
{8}
6000 м морось {дождь} 10/10 50 м
[]
+3.5 +3.2 98 -1 -1 по сезону 1031.0 1011.2 0.1
ЮВ 5-7
{7}
10 км слаб. морось 10/10 100 м
[]
+3.6 +3.3 98 -2 -2 по сезону 1031.0 1011.3 0.1
Ю 4-6
{6}
6000 м слаб. дождь 10/10 100 м
[]
+3.4 +3.2 99 -2 -2 по сезону 1030.9 1011.2 0.2
Ю 4-6
{7}
8000 м морось {дождь} 10/10 100 м
[]
+3.4 +3.0 97 -1 -1 по сезону 1031.3 1011.5 +3.2 +3.9 0.1
Ю 5-7
{9}
4800 м в посл. час морось 9/9 300 м
[]
+3.4 +2.5 94 -2 -2 по сезону 1031.7 1012.0 0.1
Ю 7-12
{12}
40 км слаб. ливневой дождь 9/9 300 м
[]
+3.4 +2.0 91 -3 -3 прохладно 1032.1 1012.3
Ю 8-12
{15}
35 км {ливн. осадки, морось} 10/10 200 м
[]
+1.9 +0.4 90 -5 -5 холодно 1032.8 1012.9
Ю 6-9
{12}
23 км 10/10 200 м
[]
+1.3 0.0 91 -5 -5 холодно 1033.2 1013.3
Ю 5-8
{10}
50 км 10/10 200 м
[]
+1.2 -0.3 90 -5 -5 холодно 1033.5 1013.5
Ю 4-6
{8}
50 км {ливн. осадки, морось} 10/10 100 м
[]
+1.2 +0.2 93 -4 -4 прохладно 1033.6 1013.7
Ю 5-8
{8}
40 км 10/0 100 м
[]
+1.5 +0.6 94 -4 -4 прохладно 1033.9 1014.0
Ю 5-7
{8}
40 км 10/0 100 м
[]
+1.6 +0.8 94 -4 -4 прохладно 1034.3 1014.4
Ю 5-8
{10}
13 км 10/10 100 м
[]
+1.6 +1.0 96 -4 -4 прохладно 1034.3 1014.4
Ю 5-8
{9}
13 км 10/0 100 м
[]
+1.6 +1.1 96 -4 -4 прохладно 1034.5 1014.6
Ю 4-6
{7}
27 км 10/0 100 м
[]
+1.7 +1.2 96 -4 -4 прохладно 1034.9 1015.0
Ю 3-4
{5}
25 км 10/10 100 м
[]
+1.7 +1.2 96 -3 -3 прохладно 1035.3 1015.3 +1.2 +3.6
Ю 3-5
{6}
22 км 10/10 100 м
[]
+1.8 +1.3 96 -3 -3 прохладно 1035.5 1015.5
Ю 3-6
{6}
26 км 10/0 100 м
[]
+1.9 +1.3 96 -3 -3 прохладно 1035.8 1015.9
Ю 4-5
{6}
25 км 10/0 100 м
[]
+1.9 +1.4 96 -3 -3 прохладно 1036.1 1016.1
Ю 3-4
{5}
23 км 10/0 100 м
[]
+2.0 +1.5 96 -2 -2 по сезону 1036.2 1016.3
Ю 3-4
{5}
23 км 10/0 100 м
[]
+2.0 +1.5 96 -2 -2 по сезону 1036.4 1016.5
Ю 2-4
{5}
20 км 10/10 50 м
[]
+2.0 +1.6 97 -2 -2 по сезону 1036.6 1016.7
Ю 3-4
{4}
30 км 10/10 100 м
[]
+1.8 +1.2 96 -3 -3 прохладно 1036.7 1016.7
Ю 3-4
{5}
25 км 10/10 100 м
[]
+2.1 +1.6 96 -2 -2 по сезону 1036.7 1016.7
Местоположение метеостанции Мекриярви (Финляндия): широта 62.77 долгота 30.98 высота над уровнем моря 155 м.
В архиве по умолчанию представлена погода в Мекриярви за последнюю неделю. Архивные данные за месяц целиком и за предыдущие месяцы, начиная с января 2011 года, Вы можете получить, выбрав интересующий диапазон дат из раскрывающегося списка и нажав кнопку "Найти!".
*Определитесь, кто Вы:
Внимание! Время в таблицах - всемирное. Для получения местного времени необходимо прибавить поправку, которая равна 1 ч.
Смотрите также архив погоды в соседних городах и на ближайших метеорологических станциях:
Партнеры нашего сайта:      
Пояснения к столбцам:
  • Ветер - указаны скорость ветра в м/с - средняя за 10 мин, порывы в срок и между сроками (в фигурных скобках) и направление, откуда дует ветер: С - северный,
  • СВ - северо-восточный, В - восточный, ЮВ - юго-восточный, Ю - южный, ЮЗ - юго-западный, З - западный, СЗ - северо-западный.
  • Видимость - горизонтальная дальность видимости в метрах или километрах. При видимости от 1 до 10 км при отсутствии осадков обычно наблюдается дымка, при ухудшении видимости до 1 км и менее - туман. В сухую погоду видимость может ухудшаться дымом, пылью или мглою.
  • Явления - указаны атмосферные явления, наблюдавшиеся в срок или в последний час перед сроком; фигурными скобками обозначены явления, наблюдавшиеся между сроками (за 1-3 часа до срока); квадратными скобками обозначены град или гололедные отложения с указанием их диаметра в мм.
  • Облачность - указаны через наклонную черту общая и нижняя облачность в баллах и высота нижней границы облаков в метрах; квадратными скобками обозначены формы облаков: Ci - перистые, Cs - перисто-слоистые, Cc - перисто-кучевые, Ac - высококучевые, As - высокослоистые, Sc - слоисто-кучевые, Ns - слоисто-дождевые, Cu - кучевые, Cb - кучево-дождевые. Подробнее классификацию облаков см. в Атласе облаков (PDF).
  • T - Температура воздуха - температура, измеренная на высоте 2 м над землей.
  • Td - Температура точки росы - температура, при понижении до которой содержащийся в воздухе водяной пар достигнет насыщения.
  • f - Относительная влажность воздуха - влажноcть воздуха, измеренная на высоте 2 м над землей.
  • Te - Эффективная температура - температура, которую ощущает одетый по сезону человек в тени. Характеристика душности погоды. При расчете учитывается влияние влажности воздуха и скорости ветра на теплоощущения человека.
  • Tes - Эффективная температура на солнце - температура, которую ощущает человек, с поправкой на солнечный нагрев. Характеристика знойности погоды. Зависит от высоты солнца над горизонтом, облачности и скорости ветра. Ночью, в пасмурную погоду, а также при ветре 12 м/с и более поправка равна нулю.
  • P - Атмосферное давление - приведенное к уровню моря атмосферное давление.
  • Po - Атмосферное давление - измеренное на уровне метеостанции атмосферное давление.
  • Tmin - Минимальная температура - минимум температуры воздуха на высоте 2 м над землей.
  • Tmax - Максимальная температура - максимум температуры воздуха на высоте 2 м над землей.
  • R - Количество осадков - Количество выпавших осадков за период времени, мм. При наведении курсора мыши на число - период времени, за который выпало указанное количество осадков.
  • R24 - Количество осадков - Количество выпавших осадков за 24 часа, мм.
  • S - Снежный покров - Высота снежного покрова, см. При наведении курсора мыши на число - состояние снежного покрова и степень покрытия местности в баллах.